Retour au catalogue

FENGYUN 1C DEB

ActifSSO
NORAD 31783·DEBRIS·🇨🇳 China

Lancé May 10, 1999 depuis Taiyuan Satellite Launch Center

Loading…

Prochains Passages (prochaines 24 heures)

TLE

FraisSource: Space-Track

Époque: Sep 13, 2026, 19:14 UTC

1 31783U 99025CGJ 26256.80186704  .00000474  00000-0  28218-3 0  9991
2 31783  98.6078 258.1989 0102681 349.4297 188.9252 14.09299652930947

Suivez FENGYUN 1C DEB en temps réel avec AllMySat

Download on the App Store